Location: Allonne
(49.4086°N, 2.1143°E)
Time: 12:58:29
(UTC+00:00)

SO-50 - Visible Passes

Search period start: 05 December 2023 00:00
Search period end: 15 December 2023 00:00
Orbit: 601 x 670 km, 64.6° (Epoch: 04 December)

Date Brightness Start Highest point End Pass type
(mag) Time Alt. Az. Time Alt. Az. Time Alt. Az.
05 Dec ? 03:19:06 10° NE 03:19:06 10° NE 03:19:09 10° NE visible
05 Dec ? 04:56:36 28° N 04:56:36 28° N 04:59:23 10° NNE visible
05 Dec ? 06:34:05 10° NW 06:36:39 15° NNW 06:39:15 10° NNE visible
06 Dec ? 03:41:22 13° NE 03:41:22 13° NE 03:41:51 10° NE visible
06 Dec ? 05:18:51 22° NNW 05:18:51 22° NNW 05:21:47 10° NNE visible
07 Dec ? 04:03:34 15° NNE 04:03:34 15° NNE 04:04:21 10° NNE visible
07 Dec ? 05:41:03 17° NNW 05:41:09 17° NNW 05:44:10 10° NNE visible
08 Dec ? 04:25:42 15° NNE 04:25:42 15° NNE 04:26:45 10° NNE visible
08 Dec ? 06:03:11 12° NNW 06:04:22 13° NNW 06:06:41 10° NNE visible
09 Dec ? 04:47:47 15° N 04:47:47 15° N 04:49:07 10° NNE visible
09 Dec ? 06:25:45 10° NNW 06:27:40 12° N 06:29:34 10° NNE visible
10 Dec ? 05:09:50 14° N 05:09:50 14° N 05:11:31 10° NNE visible
10 Dec ? 06:48:52 10° NNW 06:50:58 13° N 06:53:04 10° NE visible
11 Dec ? 05:31:51 13° N 05:32:03 13° N 05:34:08 10° NNE visible
12 Dec ? 04:16:22 10° NNE 04:16:22 10° NNE 04:16:24 10° NNE visible
12 Dec ? 05:53:50 11° NNW 05:55:20 12° N 05:57:14 10° NNE visible
13 Dec ? 04:38:20 11° NNE 04:38:20 11° NNE 04:38:51 10° NNE visible
13 Dec ? 06:16:16 10° NNW 06:18:36 14° NNE 06:20:55 10° NE visible
14 Dec ? 05:00:17 12° N 05:00:17 12° N 05:01:36 10° NNE visible
14 Dec ? 06:38:45 10° NNW 06:41:48 17° NNE 06:44:47 10° ENE visible
